Home   Weather   Oer-Erkenschwick   Past weeks

Flag for Germany Past Weather in Oer-Erkenschwick, North Rhine-Westphalia, Germany — Yesterday and Last 2 Weeks

Now
48 °F

Clear.


Feels Like: 45 °F
Forecast: 52 / 62 °F
Wind: 7 mph from South

Location: Dortmund / Wickede

Current Time: Oct 1, 2016 at 12:03:54 AM

Latest Report: Sep 30, 2016 at 9:50 PM


Visibility: 10 mi

Pressure: 29.95 "Hg

Humidity: 76%

Dew Point: 41 °F

Location of Oer-ErkenschwickLocation

Past Weather in Oer-Erkenschwick — Graph

°F

Oer-Erkenschwick Temperature Yesterday

Maximum temperature yesterday: 63 °F (at 3:50 PM)
Minimum temperature yesterday: 48 °F (at 9:20 PM)
Average temperature yesterday: 57 °F

High & Low Weather Summary for the Past Weeks

 TemperatureHumidityPressure
High79 °F (Sep 25, 2:20 PM)88% (Sep 16, 6:20 AM)30.30 "Hg (Sep 16, 6:20 AM)
Low45 °F (Sep 21, 6:20 AM)28% (Sep 25, 2:20 PM)29.83 "Hg (Sep 15, 9:20 PM)
Average61 °F61%30.10 "Hg
* Reported Sep 15 9:20 PM — Sep 30 9:50 PM, Oer-Erkenschwick, Weather by CustomWeather, © 2016

Note: Actual official high and low records may vary slightly from our data, if they occured in-between our weather recording intervals... More about our weather records

Advertising

Oer-Erkenschwick Weather History for the Previous 24 Hours

Scroll right to see more
 ConditionsComfort  
Time TempWeatherWind HumidityBarometerVisibility
9:50 PM
Fri, Sep 30
48 °FClear.7 mph76%29.95 "Hg10 mi
9:20 PM48 °FClear.7 mph76%29.95 "Hg10 mi
8:50 PM50 °FClear.7 mph76%29.95 "Hg10 mi
8:20 PM50 °FClear.7 mph76%29.95 "Hg10 mi
7:50 PM52 °FClear.5 mph72%29.95 "Hg10 mi
7:20 PM52 °FClear.7 mph67%29.95 "Hg10 mi
6:50 PM57 °FSunny.7 mph63%29.95 "Hg10 mi
6:20 PM59 °FPassing clouds.8 mph59%29.95 "HgN/A
5:50 PM61 °FSunny.9 mph48%29.95 "Hg10 mi
5:20 PM61 °FPassing clouds.13 mph52%29.95 "HgN/A
4:50 PM63 °FPassing clouds.14 mph49%29.95 "HgN/A
4:20 PM63 °FScattered clouds.13 mph52%29.95 "HgN/A
3:50 PM63 °FScattered clouds.13 mph56%29.95 "HgN/A
3:20 PM61 °FPassing clouds.13 mph63%29.95 "HgN/A
2:50 PM61 °FScattered clouds.12 mph59%29.95 "HgN/A
2:20 PM61 °FScattered clouds.12 mph63%29.95 "HgN/A
1:50 PM61 °FScattered clouds.15 mph63%29.95 "HgN/A
1:20 PM61 °FScattered clouds.12 mph63%29.95 "HgN/A
12:50 PM61 °FScattered clouds.14 mph68%29.95 "HgN/A
12:20 PM61 °FScattered clouds.10 mph68%29.95 "HgN/A
11:50 AM59 °FScattered clouds.10 mph72%29.95 "HgN/A
11:20 AM59 °FSunny.12 mph72%29.95 "Hg10 mi
10:50 AM57 °FSunny.12 mph77%29.95 "Hg10 mi
10:20 AM57 °FPassing clouds.10 mph77%29.95 "HgN/A
9:50 AM57 °FScattered clouds.10 mph77%29.95 "HgN/A
9:20 AM57 °FBroken clouds.10 mph77%29.95 "HgN/A
8:50 AM55 °FScattered clouds.8 mph82%29.92 "HgN/A
8:20 AM55 °FScattered clouds.8 mph82%29.92 "HgN/A
7:50 AM55 °FScattered clouds.8 mph82%29.92 "HgN/A
7:20 AM55 °FPassing clouds.8 mph82%29.92 "HgN/A
6:50 AM55 °FPassing clouds.8 mph82%29.92 "HgN/A
6:20 AM55 °FPassing clouds.9 mph82%29.92 "HgN/A
5:50 AM55 °FPassing clouds.10 mph82%29.92 "HgN/A
5:20 AM55 °FPassing clouds.12 mph82%29.92 "HgN/A
Weather by CustomWeather, © 2016

See weather overviewHow to use our weather pages